Regional Weather Roundup
Issued by NWS

Home | Current Version | Previous Version | Text Only | Print | Product List | Glossary On
Versions: 1 2 3 4 5 6 7 8 9 10 11 12 13 14 15 16 17 18 19 20 21 22 23 24 25 26 27 28
000
ASUS46 KSEW 232310
RWRWA

WASHINGTON REGIONAL WEATHER ROUNDUP
NATIONAL WEATHER SERVICE SEATTLE WA
400 PM PDT SAT JUL 23 2016

NOTE:"FAIR" INDICATES FEW OR NO CLOUDS BELOW 12,000 FEET WITH NO
SIGNIFICANT WEATHER AND/OR OBSTRUCTIONS TO VISIBILITY.

WAZ505-507>509-240000-
SEATTLE, TACOMA, EVERETT, AND VICINITY

CITY           SKY/WX    TMP DP  RH WIND       PRES   REMARKS
EVERETT        SUNNY     69  52  54 NW8       30.27F
BOEING FIELD   MOSUNNY   73  49  42 NW5       30.24F
RENTON         SUNNY     73  53  49 NW8       30.24F
SEATAC AIRPORT PTSUNNY   71  53  52 NW5       30.26F
JBLM-MCCHORD   PTSUNNY   73  54  49 VRB5      30.24F
PUYALLUP         N/A     73  55  53 CALM      30.25F
BREMERTON      CLOUDY    68  54  60 N3        30.28F
JBLM-FT LEWIS  CLOUDY    71  54  54 CALM      30.24F
TACOMA NARROWS PTSUNNY   70  49  47 SE3       30.25F
$$

WAZ001-503-506-510-514-515-240000-
NORTH INTERIOR

CITY           SKY/WX    TMP DP  RH WIND       PRES   REMARKS
BELLINGHAM     SUNNY     69  51  52 S9G17     30.25S
FRIDAY HARBOR  SUNNY     72  51  47 S8        30.26S
EASTSOUND      SUNNY     72  52  49 S8        30.23F
PORT ANGELES   CLOUDY    66  52  60 NW8       30.27F
EDIZ HOOK      FAIR      64  51  64 W13G25    30.27F
PORT TOWNSEND  FAIR      68  54  60 VRB6G12   30.27F
NAS WHIDBEY    MOSUNNY   66  50  56 SW10      30.30F
ARLINGTON      PTSUNNY   70  50  49 NW9       30.26F
BURLINGTON     SUNNY     72  52  49 SW10      30.26S HAZE
$$

WAZ020-022-039-040-504-511-512-240000-
SOUTHWEST INTERIOR

CITY           SKY/WX    TMP DP  RH WIND       PRES   REMARKS
SHELTON        CLOUDY    73  52  47 SE7       30.22F
OLYMPIA        CLOUDY    71  51  49 N5        30.24F
CHEHALIS       CLOUDY    72  55  56 VRB3      30.25F
KELSO          CLOUDY    70  55  59 VRB5      30.24F HAZE
VANCOUVER      MOSUNNY   73  52  47 N8G17     30.21F
SCAPPOOSE, OR  PTSUNNY   73  52  47 N13G22    30.21F
PORTLAND, OR   MOSUNNY   73  51  46 NW8       30.21F
$$

WAZ021-516-517-240000-
WASHINGTON COAST

CITY           SKY/WX    TMP DP  RH WIND       PRES   REMARKS
FORKS          CLOUDY    67  54  63 NW8       30.27F
HOQUIAM        PTSUNNY   67  55  65 W17       30.26F
ASTORIA, OR    CLOUDY    67  54  63 NW14      30.27S
$$

WAZ019-023-024-040-518-519-240000-
CASCADE MOUNTAINS AND COLUMBIA GORGE

CITY           SKY/WX    TMP DP  RH WIND       PRES   REMARKS
STAMPEDE PASS  CLOUDY    56  46  69 VRB7G17   30.28S
TROUTDALE, OR  SUNNY     75  53  46 MISG      30.20F
THE DALLES, OR SUNNY     82  50  32 NW16      30.07F
$$

WAZ026-027-041>044-520-521-240000-
EAST SLOPES

CITY           SKY/WX    TMP DP  RH WIND       PRES   REMARKS
OMAK           SUNNY     82  40  22 VRB3      30.08F
WENATCHEE      SUNNY     81  44  27 SE6       30.08F
ELLENSBURG     SUNNY     80  49  33 NW20      30.11F
YAKIMA         MOSUNNY   85  43  22 CALM      30.08F
$$

WAZ028-034-035-240000-
COLUMBIA BASIN

CITY           SKY/WX    TMP DP  RH WIND       PRES   REMARKS
EPHRATA        SUNNY     80  44  27 VRB3      30.09F
MOSES LAKE     SUNNY     82  44  26 MISG      30.11F
PASCO          SUNNY     84  47  27 NW6       30.07F
HERMISTON, OR  SUNNY     84  44  24 VRB7      30.07F
$$

WAZ036>038-240000-
NORTHEAST WASHINGTON

CITY           SKY/WX    TMP DP  RH WIND       PRES   REMARKS
SPOKANE GEIGER MOSUNNY   76  40  27 VRB7      30.14F
SPOKANE FELTS  MOSUNNY   78  44  29 VRB3      30.13F
FAIRCHILD AFB  SUNNY     75  40  28 SW6       30.14F
COEURDALENE,ID MOSUNNY   73  46  38 CALM      30.12F
DEER PARK      MOSUNNY   75  42  30 VRB3      30.15F
$$

WAZ029>033-240000-
SOUTHEAST WASHINGTON

CITY           SKY/WX    TMP DP  RH WIND       PRES   REMARKS
PULLMAN        SUNNY     76  46  34 VRB6      30.16F
LEWISTON, ID   SUNNY     82  45  27 CALM      30.08F
WALLA WALLA    SUNNY     80  42  25 SW3       30.10F
PENDLETON, OR  SUNNY     80  40  23 NW7       30.11F
$$




USA.gov is the U.S. government's official web portal to all federal, state and local government web resources and services.